Location: Unspecified
(0.0000°N, 0.0000°E)
Time: 16:39:23
(UTC+00:00)

TRS 6 - Pass Details

Date: 23 February 2019
Orbit: 3570 x 3718 km, 87.3° (Epoch: 17 March)

Event Time Altitude Azimuth Distance (km) Brightness Sun altitude
Rises 20:03:07 0° 188° (S) 7,706 ? -27.0°
Reaches altitude 10° 20:07:32 10° 191° (S) 6,688 ? -28.1°
Maximum altitude 20:25:50 60° 266° (W) 4,025 ? -32.6°
Drops below altitude 10° 20:44:39 10° 343° (NNW) 6,781 ? -37.2°
Sets 20:49:17 0° 348° (NNW) 7,818 ? -38.3°
